Temperature
19 19 19 19 16 14 16 17 17 18 18 19 19 19 16 16 17 18 19 19 18 17 16 14 14 13 13 13 13 13 13 12 12 12 12 11 11 11 11 11 11 11 12 12 12 12 12 12 12
19 19 19 18 14 15 16 17 17 18 19 19 19 19 18 18 19 19 19 18 17 17 16 14 14 13 13 13 13 13 12 12 12 12 12 11 11 11 11 11 11 11 11 11 12 12 12 12 12
19 19 19 14 14 15 17 17 17 18 19 19 19 19 19 20 20 20 19 18 17 16 15 15 14 13 13 13 13 13 12 12 12 12 11 11 11 11 11 11 11 11 11 11 11 11 11 11 11
19 19 18 14 16 16 17 18 17 18 19 19 19 18 19 20 20 20 19 18 17 16 15 15 14 13 13 13 13 13 12 12 12 11 11 11 11 11 11 11 11 11 11 11 11 11 11 11 11
19 18 15 15 16 16 16 17 18 17 18 19 19 18 19 20 20 20 19 18 17 16 15 14 14 13 13 13 13 12 12 12 12 11 11 11 11 11 11 11 11 11 11 11 11 11 11 11 11
19 15 14 15 16 17 17 18 18 18 18 19 19 18 20 20 20 19 19 18 17 16 15 14 14 13 13 13 12 12 12 12 12 11 11 11 11 11 11 11 11 11 11 11 10 10 10 10 10
17 13 14 16 16 17 18 19 18 17 18 19 20 18 20 20 20 19 18 18 17 16 15 15 14 13 13 13 12 12 12 11 11 11 11 11 11 11 11 11 11 10 10 10 10 10 10 10 10
18 14 15 15 16 17 18 19 20 19 19 20 20 19 20 20 20 19 18 17 16 16 15 15 14 13 13 12 12 12 12 11 11 11 11 11 11 11 11 10 10 10 10 10 10 10 10 10 10
17 14 14 15 16 17 18 18 20 20 20 20 20 20 20 20 20 19 17 16 16 15 15 15 14 14 13 13 12 12 12 11 11 11 11 11 11 11 10 10 10 10 10 10 10 10 10 9 10
16 13 15 16 16 17 18 18 19 19 18 19 19 20 20 20 20 19 19 18 17 16 16 15 14 14 13 13 12 12 12 12 11 11 11 11 11 10 10 10 10 10 10 9 9 9 9 9 9
15 14 16 17 18 18 18 18 19 18 17 19 20 20 20 20 20 20 20 19 19 18 16 15 15 14 14 13 13 12 12 12 11 11 11 11 10 10 10 10 9 9 9 9 9 9 9 9 9
15 15 16 17 18 18 18 18 18 18 20 21 21 20 20 20 20 20 20 19 19 18 17 16 15 14 14 13 13 13 12 12 12 11 11 11 10 10 10 10 9 9 9 9 9 9 9 9 9
15 15 17 18 18 18 18 18 18 18 20 20 20 20 20 20 20 20 20 19 19 18 17 16 15 15 14 13 13 13 12 12 12 11 11 11 10 10 10 10 9 9 9 9 9 9 9 9 9
15 16 16 17 17 17 17 17 17 18 20 20 20 20 20 20 20 20 19 19 19 18 18 17 16 15 14 14 13 13 13 12 12 11 11 11 10 10 10 10 9 9 9 9 9 9 9 9 9
16 15 15 15 16 17 17 15 15 19 19 19 19 19 19 20 19 19 20 20 19 19 18 17 16 15 15 14 14 13 13 12 12 11 11 11 10 10 10 9 9 9 9 9 9 9 9 9 9
14 14 14 15 15 16 16 15 16 19 18 18 19 19 19 19 19 19 19 19 19 19 18 17 16 16 15 15 14 13 13 12 12 11 11 11 10 10 10 9 9 9 9 9 9 9 9 9 9
13 13 13 14 15 14 15 14 15 18 17 17 18 19 19 19 19 19 19 19 19 19 18 18 17 16 16 15 14 13 13 12 12 12 11 11 10 10 10 9 9 9 9 9 9 9 9 9 9
12 12 13 13 14 14 13 13 14 17 16 16 17 18 19 19 20 20 20 20 19 19 18 18 17 16 16 15 14 13 12 12 12 12 11 11 11 10 10 9 9 9 9 9 9 9 9 9 9
13 13 13 14 14 14 13 13 14 15 15 15 16 17 18 19 20 20 20 20 19 19 18 18 17 17 16 15 14 13 13 13 12 12 11 11 11 10 10 10 9 9 9 9 9 9 9 9 9
13 13 13 13 14 14 13 13 13 13 14 15 16 17 19 19 20 20 20 20 19 19 19 18 18 17 17 16 16 15 14 13 13 12 11 11 11 10 10 10 9 9 9 9 9 9 9 9 9
12 12 13 13 14 13 13 13 13 13 14 15 16 17 18 19 19 20 20 20 20 19 19 19 18 18 17 16 15 14 13 12 12 12 11 11 11 10 10 10 10 9 9 9 9 9 9 9 8
12 13 13 13 13 12 13 12 12 13 13 13 15 16 18 19 19 19 20 20 20 19 19 19 18 18 17 16 15 15 14 13 13 13 12 11 11 10 10 10 10 9 9 9 9 9 8 8 8
12 13 13 13 12 11 11 11 12 12 13 13 14 16 18 19 19 19 19 19 19 19 19 19 18 17 17 16 15 15 14 14 14 13 12 11 11 10 10 10 9 9 9 9 9 9 8 8 8
12 12 11 10 10 11 11 11 11 11 13 14 14 16 18 19 19 19 19 19 19 19 19 18 18 17 17 16 15 15 14 14 13 12 12 11 11 10 10 10 10 9 9 9 9 8 8 8 8
12 11 11 11 10 10 10 10 12 12 12 13 14 16 18 18 18 19 19 19 19 19 18 18 17 17 16 16 15 15 14 14 13 13 12 11 11 11 10 10 10 9 9 9 9 8 8 8 8
11 12 11 11 10 10 10 10 12 12 13 14 15 16 17 18 18 18 19 19 18 18 18 18 17 17 16 15 15 15 14 13 13 12 12 11 11 11 11 10 10 9 9 9 9 8 8 8 8
11 11 11 11 10 10 9 9 10 12 12 12 13 14 16 17 18 18 18 18 18 18 18 17 17 16 16 15 15 14 14 13 13 12 11 11 11 11 10 10 10 9 9 9 8 8 8 8 7
11 11 10 10 10 11 10 10 11 13 13 13 12 13 16 17 18 18 18 18 17 17 17 17 16 16 16 15 15 14 13 13 12 12 11 11 10 10 10 10 9 9 9 9 8 8 8 8 7
10 10 10 10 9 10 10 11 11 13 14 13 13 15 16 17 18 18 18 17 17 17 17 16 16 16 15 15 14 14 13 12 12 11 11 10 10 10 10 9 9 9 9 8 8 8 8 7 7
10 10 10 10 9 8 9 11 13 12 12 13 13 15 16 17 17 17 17 17 17 17 16 16 16 15 15 14 14 13 13 12 11 11 10 10 10 9 9 9 9 9 8 8 8 8 7 7 7
Wind_Speed
5 2 3 4 5 5 2 4 3 3 3 1 3 6 9 7 6 3 1 10 10 10 16 18 19 18 17 16 15 14 13 13 12 11 11 11 11 11 11 12 12 13 13 13 14 14 14 14 14
1 1 5 5 5 1 5 5 5 5 5 5 4 5 5 3 2 4 4 8 11 14 16 17 20 19 18 17 16 14 13 12 12 11 11 11 11 11 11 12 12 12 12 13 13 13 13 13 14
1 4 5 5 4 6 6 5 6 2 5 4 3 2 4 4 4 6 6 11 11 13 15 18 20 19 18 17 16 15 13 13 12 11 11 11 11 10 11 11 11 11 11 11 12 12 12 12 12
3 5 5 4 4 6 6 5 5 4 3 2 5 3 1 0 5 6 8 12 13 11 15 18 20 19 18 17 16 15 14 13 12 11 11 10 10 10 10 10 10 10 10 11 11 11 11 11 11
4 4 3 1 4 5 5 4 5 5 5 3 5 5 2 2 3 8 13 13 14 10 14 17 20 19 18 17 17 16 14 13 12 11 11 10 10 10 9 9 9 9 9 10 10 10 10 10 10
5 5 3 3 5 5 3 4 5 4 3 4 7 6 4 2 6 9 13 12 12 11 13 16 20 19 18 18 17 16 15 14 13 12 11 10 10 9 9 8 8 8 8 8 8 8 8 8 9
5 5 4 4 3 4 3 5 6 6 5 6 8 7 3 2 6 10 11 10 9 11 11 12 16 18 18 18 17 17 15 14 13 12 11 10 10 9 8 7 7 7 7 7 6 6 6 7 7
5 5 3 3 4 5 3 4 4 7 6 3 8 8 6 5 9 10 9 8 8 8 9 10 12 15 16 17 18 17 16 15 14 12 11 10 9 8 7 6 5 5 5 4 5 5 6 6 7
5 4 4 6 7 5 2 3 2 2 4 3 4 4 1 11 14 13 9 8 9 10 8 8 9 12 14 15 17 18 16 15 14 12 12 10 8 6 5 4 3 3 3 3 3 4 5 6 7
5 5 8 6 6 4 3 4 4 3 2 2 2 1 6 13 17 17 15 17 17 16 12 8 9 11 13 14 14 15 15 14 13 13 12 10 8 6 4 3 2 1 1 2 3 4 6 7 7
6 7 6 5 5 4 3 3 3 6 5 8 8 7 9 11 14 16 17 17 17 16 14 12 10 12 12 10 12 12 12 12 13 13 13 11 8 6 4 2 1 0 1 2 3 5 5 5 5
5 6 5 4 4 4 4 3 3 7 9 7 7 8 11 15 18 19 18 16 14 14 16 13 12 11 12 12 10 11 10 11 11 13 14 11 7 5 4 3 2 1 1 1 2 2 3 4 4
6 5 5 5 5 4 3 5 5 7 8 3 3 8 13 16 17 16 14 12 12 16 17 15 14 13 12 10 9 10 10 11 13 13 14 13 9 5 5 4 3 3 2 1 0 1 2 3 4
6 6 5 5 5 4 5 6 4 9 5 3 5 8 12 16 17 12 11 12 15 17 18 16 16 15 13 11 10 10 12 12 13 13 14 15 12 9 6 5 4 4 4 3 2 1 1 2 2
3 3 4 5 5 4 3 8 9 9 4 5 7 8 10 13 12 14 15 16 17 16 16 17 17 15 15 13 12 11 12 13 12 13 15 15 14 12 9 5 4 5 5 4 2 1 1 1 2
3 3 5 5 5 5 6 12 10 6 6 8 9 8 9 11 12 13 13 13 13 13 15 17 16 17 17 14 12 11 13 13 13 14 15 16 15 14 10 6 5 7 6 4 2 1 1 1 1
3 5 7 6 5 5 7 10 9 4 6 9 9 9 9 9 10 12 12 13 13 14 15 17 17 18 18 15 12 11 11 12 13 14 14 15 16 15 12 7 7 8 6 4 2 1 1 0 1
7 7 6 8 4 6 8 11 11 5 6 9 9 9 8 10 13 12 12 12 12 13 14 16 16 16 15 12 9 8 8 9 11 12 14 15 15 15 13 8 8 8 4 3 3 2 1 1 0
7 8 7 7 4 6 10 12 13 10 7 9 9 9 10 12 11 8 8 9 10 11 14 16 17 16 14 12 12 11 12 10 9 10 14 16 15 15 13 7 7 7 5 5 5 3 2 1 1
7 7 7 5 3 5 7 12 11 10 8 9 10 10 10 9 8 7 6 7 10 12 14 15 17 17 16 15 13 9 8 7 7 7 10 14 15 15 13 10 7 7 5 5 5 4 3 1 1
11 11 9 6 1 1 4 9 8 8 7 8 9 9 9 10 10 8 6 7 8 11 14 15 16 16 17 14 9 6 5 4 5 7 8 10 14 15 13 12 9 8 7 6 6 6 5 3 1
14 10 8 6 3 4 2 7 9 7 8 10 11 10 10 10 9 8 6 6 8 10 10 12 13 14 14 14 13 14 12 11 11 8 8 8 12 13 14 13 11 9 7 7 6 6 4 5 3
7 6 7 5 5 5 3 5 10 5 9 11 12 12 11 10 9 8 7 7 7 7 8 9 11 12 13 14 16 16 12 10 6 6 8 8 8 10 12 12 10 9 7 7 7 6 6 5 4
6 5 4 2 2 8 10 8 9 7 10 9 9 10 10 9 7 7 5 4 4 5 6 8 10 11 12 14 14 15 14 11 9 9 9 8 6 7 9 10 10 9 8 8 7 7 7 6 5
8 6 3 4 5 9 7 8 11 10 10 11 11 11 9 7 6 6 5 5 5 6 7 8 10 10 11 13 14 14 14 13 13 12 11 9 7 7 10 9 9 8 8 8 7 7 7 7 6
13 12 9 8 7 5 5 10 10 9 8 9 9 8 7 7 6 6 6 6 6 7 8 9 10 10 11 12 13 12 11 10 9 10 9 10 9 9 9 10 9 9 9 8 8 6 6 6 6
11 11 7 4 3 3 6 7 10 7 8 8 9 8 9 8 7 7 5 5 6 6 7 9 10 9 10 11 11 10 11 10 9 9 8 8 7 6 8 9 8 8 8 8 7 6 6 6 6
9 10 6 7 7 6 6 7 7 7 10 9 9 10 10 8 7 6 5 5 5 5 5 7 8 9 9 9 10 9 10 10 9 8 9 8 8 7 8 8 8 8 7 7 7 5 5 6 5
8 9 7 7 5 7 6 8 9 11 11 12 12 10 9 9 7 6 5 4 4 4 5 6 7 7 7 8 9 9 8 8 8 8 9 8 8 8 9 9 9 8 8 7 7 7 7 7 6
9 10 11 10 7 6 5 9 6 9 8 7 8 7 6 6 5 5 4 4 4 4 5 6 6 7 7 8 8 8 8 8 8 8 8 8 8 8 9 9 9 8 8 8 8 8 7 7 7
Wind_Direction
334 36 81 58 55 52 228 240 216 210 209 192 147 152 158 166 170 194 140 147 141 150 166 166 160 156 151 146 141 136 129 124 120 115 110 105 101 96 92 87 84 81 78 76 75 74 72 71 70
340 81 58 61 91 121 258 239 213 210 178 133 107 119 141 189 184 140 145 169 150 153 162 163 162 158 155 151 145 141 135 131 126 120 115 110 106 101 97 92 87 84 80 78 77 75 74 72 70
114 57 82 79 132 187 222 220 205 198 165 155 126 139 169 176 176 182 188 161 146 152 159 163 163 160 158 153 149 145 141 137 132 126 121 116 111 105 101 95 90 86 84 81 79 77 75 74 71
86 51 59 86 216 223 225 222 186 145 172 172 139 126 249 192 182 182 151 150 146 151 159 166 165 163 160 158 154 150 146 143 139 133 127 122 117 110 104 99 94 90 87 84 81 79 76 75 73
62 80 72 330 253 251 243 225 182 172 176 170 145 150 199 17 111 137 146 153 153 154 161 169 168 166 164 163 159 155 152 149 145 140 134 127 121 115 110 105 99 93 89 84 81 79 76 72 70
62 75 112 230 260 277 258 179 163 180 174 163 151 155 207 106 138 152 152 155 156 156 161 172 172 170 169 167 163 160 158 156 152 148 142 135 129 125 120 113 105 98 92 87 82 77 72 68 65
117 119 176 209 254 277 243 162 173 178 189 200 168 155 251 185 166 150 145 144 149 156 161 173 175 173 172 169 167 165 164 162 159 154 148 142 138 135 129 122 114 102 94 87 79 71 62 58 57
133 126 170 208 217 249 235 170 187 174 202 172 150 161 222 193 142 132 127 137 151 162 168 174 174 173 173 172 171 169 170 167 164 159 152 147 144 140 135 129 123 114 102 88 73 57 50 46 44
106 110 199 209 202 234 216 183 195 169 141 166 201 201 222 132 136 137 141 157 171 180 181 177 172 170 170 170 173 172 173 171 166 160 154 147 141 136 137 136 137 128 109 81 59 47 42 41 35
124 179 217 213 199 209 201 195 185 132 156 211 224 127 110 141 154 162 172 180 186 190 190 183 176 171 169 172 173 172 172 171 165 160 156 152 153 152 149 157 159 127 66 45 38 38 39 36 25
167 195 218 231 221 211 201 213 185 159 214 217 210 191 151 163 171 180 186 188 192 191 189 188 183 176 172 170 168 169 168 166 164 164 163 162 161 162 162 176 226 339 23 30 25 30 28 25 18
184 220 211 227 215 207 210 203 204 196 221 223 209 170 168 178 186 192 194 195 189 189 194 190 186 181 179 174 171 170 168 168 169 172 170 167 166 172 179 197 219 231 259 13 22 27 21 24 21
207 227 223 236 237 230 224 226 226 238 244 245 160 162 184 192 199 203 201 192 188 194 195 193 188 187 183 177 177 177 178 178 179 178 179 178 177 183 190 205 217 224 217 197 152 54 28 22 18
211 217 238 242 237 227 220 251 228 250 243 227 200 200 202 203 206 203 197 196 197 200 198 194 193 191 186 186 185 184 186 183 182 184 187 187 188 190 190 199 207 212 206 194 182 166 54 22 16
173 202 267 249 225 225 196 267 237 242 224 238 235 228 221 220 213 209 206 204 202 200 196 195 195 192 191 192 190 188 188 185 187 191 192 192 194 194 192 191 197 203 195 177 159 133 85 40 12
134 178 240 254 207 204 176 252 254 234 210 240 245 243 238 234 224 222 217 212 204 197 194 196 195 194 196 195 192 190 190 189 192 193 193 196 197 196 190 187 196 196 180 166 148 127 104 20 358
172 202 223 260 215 183 192 245 258 224 210 243 252 249 243 246 242 232 222 215 204 198 194 193 194 195 197 195 192 190 189 193 195 193 195 197 197 195 189 189 192 184 168 162 155 128 136 279 330
197 198 210 224 228 183 217 246 265 257 224 246 255 257 250 246 244 235 225 217 207 199 194 194 195 194 192 189 184 185 191 196 195 196 199 196 195 192 188 185 183 174 162 164 159 150 119 118 324
176 182 210 227 214 193 230 250 260 264 248 255 259 256 253 250 252 243 227 213 203 196 194 194 194 191 185 188 190 194 201 200 199 200 199 196 192 189 185 181 176 174 179 180 167 150 138 83 47
188 203 225 257 218 206 254 263 261 253 242 239 245 249 249 255 265 252 231 209 201 200 199 196 196 190 189 193 193 193 188 193 196 195 196 196 192 189 188 182 182 178 175 170 168 157 146 128 95
211 210 216 226 306 264 302 291 268 260 244 246 243 243 246 242 249 251 233 214 204 204 201 199 197 193 191 185 173 155 142 141 176 195 199 196 193 190 188 186 181 179 178 183 183 173 164 171 165
224 210 200 204 207 262 214 277 273 255 266 254 249 246 246 245 242 242 233 217 209 210 201 197 192 190 187 178 179 180 188 194 199 194 193 188 190 190 188 185 182 181 182 183 184 178 172 162 180
200 171 183 194 201 259 232 244 274 255 254 251 245 243 242 241 237 239 234 221 207 196 190 188 183 185 183 183 187 189 196 199 181 168 177 184 188 189 188 185 182 183 185 184 178 175 179 177 174
146 109 95 95 167 245 225 214 268 227 223 237 238 238 240 241 236 234 232 207 190 177 176 175 176 183 183 185 188 192 194 185 171 177 185 188 186 189 189 185 184 185 184 186 185 182 182 185 179
160 147 165 199 216 239 198 208 248 236 222 220 227 234 239 237 229 224 213 200 189 180 177 176 178 185 185 186 191 195 194 187 187 188 190 186 186 193 197 189 189 188 188 184 177 180 186 185 186
188 177 184 194 208 244 192 225 247 245 243 237 235 237 241 237 228 225 219 207 197 189 181 178 182 186 186 188 194 193 191 191 194 190 188 191 196 198 191 189 188 186 181 178 176 181 188 188 193
175 197 180 152 166 215 239 263 291 258 253 241 235 232 234 234 226 224 217 205 197 190 187 184 183 184 187 190 189 189 190 190 191 187 185 189 190 184 179 182 183 181 178 177 173 186 191 186 194
175 160 156 177 179 222 255 244 236 233 230 232 227 226 232 230 226 221 214 207 198 190 182 177 181 185 185 185 187 189 191 191 185 179 185 186 184 175 172 178 181 180 179 177 177 184 186 186 197
163 175 173 174 189 186 233 253 219 211 212 217 223 224 222 220 220 217 211 200 184 171 170 174 177 177 180 183 184 184 186 184 180 184 188 186 180 175 177 180 181 183 185 182 183 188 183 191 199
178 181 176 188 207 196 209 260 245 221 229 223 233 234 228 220 214 204 194 180 177 179 178 178 179 181 184 180 178 181 179 175 179 186 185 181 181 181 180 178 181 186 187 185 188 192 189 193 200
Height
1507 1507 1508 1510 1513 1525 1524 1517 1512 1511 1510 1509 1509 1511 1513 1515 1519 1522 1517 1516 1518 1520 1523 1526 1529 1532 1534 1535 1537 1538 1539 1539 1540 1540 1541 1541 1542 1542 1543 1543 1543 1543 1543 1543 1543 1543 1543 1542 1542
1507 1508 1510 1510 1521 1532 1525 1514 1512 1509 1508 1508 1509 1510 1511 1512 1512 1513 1514 1516 1518 1521 1523 1526 1529 1531 1533 1535 1537 1538 1539 1540 1540 1541 1541 1542 1543 1543 1543 1543 1544 1544 1544 1543 1543 1543 1543 1543 1543
1507 1508 1509 1513 1522 1526 1518 1509 1508 1507 1507 1508 1509 1510 1510 1511 1512 1513 1514 1516 1518 1521 1523 1526 1529 1531 1533 1535 1537 1538 1539 1540 1541 1541 1542 1543 1543 1544 1544 1544 1544 1544 1544 1544 1544 1544 1544 1544 1544
1507 1508 1510 1517 1518 1515 1510 1505 1505 1506 1508 1508 1508 1509 1510 1511 1512 1513 1514 1516 1518 1520 1523 1526 1529 1531 1533 1535 1537 1538 1539 1540 1541 1542 1542 1543 1544 1544 1544 1544 1545 1545 1545 1545 1545 1545 1545 1545 1545
1506 1507 1514 1520 1515 1509 1505 1503 1505 1505 1506 1507 1507 1508 1509 1511 1512 1513 1514 1516 1518 1520 1523 1526 1529 1531 1533 1535 1537 1538 1539 1540 1541 1542 1543 1543 1544 1544 1545 1545 1545 1545 1546 1546 1546 1546 1546 1546 1546
1506 1508 1520 1522 1513 1506 1503 1502 1504 1504 1505 1506 1507 1508 1508 1510 1511 1513 1515 1516 1519 1521 1523 1526 1529 1531 1533 1535 1536 1538 1539 1540 1541 1542 1543 1544 1544 1545 1545 1545 1546 1546 1546 1546 1547 1547 1547 1547 1547
1505 1511 1516 1514 1512 1506 1502 1501 1502 1503 1504 1504 1505 1507 1507 1509 1511 1513 1515 1517 1519 1521 1523 1525 1528 1530 1532 1534 1536 1537 1539 1540 1541 1542 1543 1544 1545 1545 1546 1546 1546 1547 1547 1547 1547 1547 1547 1547 1547
1503 1508 1512 1513 1511 1506 1500 1500 1500 1501 1502 1503 1505 1505 1505 1508 1509 1512 1514 1516 1518 1520 1522 1525 1527 1529 1531 1533 1535 1537 1538 1540 1541 1542 1543 1544 1545 1545 1546 1546 1547 1547 1547 1548 1548 1548 1548 1548 1548
1501 1510 1513 1509 1507 1502 1498 1499 1499 1500 1501 1502 1502 1504 1504 1506 1507 1510 1512 1514 1516 1519 1521 1523 1526 1528 1530 1532 1534 1536 1538 1539 1541 1542 1543 1544 1545 1545 1546 1547 1547 1547 1548 1548 1548 1548 1548 1548 1548
1499 1508 1504 1499 1498 1497 1497 1497 1498 1499 1500 1500 1501 1501 1502 1504 1505 1506 1508 1510 1513 1515 1518 1521 1524 1526 1529 1531 1533 1535 1537 1539 1540 1541 1542 1543 1545 1545 1546 1547 1547 1548 1548 1548 1548 1549 1549 1549 1548
1496 1499 1496 1495 1495 1495 1495 1496 1496 1497 1499 1497 1497 1498 1500 1501 1502 1504 1505 1507 1509 1513 1516 1518 1522 1524 1527 1529 1532 1534 1536 1537 1539 1541 1542 1543 1544 1545 1546 1546 1547 1547 1548 1548 1548 1549 1549 1548 1548
1494 1493 1492 1492 1493 1493 1494 1494 1495 1494 1494 1494 1495 1496 1497 1498 1499 1501 1502 1505 1508 1510 1513 1516 1519 1522 1525 1528 1530 1532 1534 1536 1538 1539 1541 1542 1543 1544 1545 1546 1547 1547 1548 1548 1548 1548 1548 1548 1548
1491 1490 1490 1490 1491 1491 1492 1492 1492 1490 1491 1492 1493 1494 1494 1495 1496 1498 1500 1503 1505 1507 1510 1513 1516 1519 1522 1525 1528 1530 1532 1534 1536 1538 1540 1541 1542 1544 1545 1546 1546 1547 1547 1548 1548 1548 1548 1547 1547
1486 1487 1487 1488 1488 1489 1490 1489 1490 1486 1488 1489 1489 1490 1491 1492 1493 1495 1497 1499 1501 1504 1507 1510 1513 1516 1519 1522 1525 1527 1530 1532 1534 1536 1538 1540 1541 1543 1544 1544 1545 1546 1546 1547 1547 1547 1547 1546 1546
1484 1487 1486 1485 1486 1486 1488 1489 1485 1483 1485 1485 1485 1486 1487 1488 1489 1491 1492 1495 1497 1500 1503 1506 1510 1513 1516 1519 1522 1525 1527 1530 1532 1534 1536 1538 1539 1541 1542 1543 1544 1545 1545 1546 1546 1546 1546 1545 1545
1484 1488 1490 1483 1483 1484 1490 1488 1479 1480 1481 1481 1481 1482 1482 1484 1485 1486 1489 1491 1494 1496 1499 1502 1506 1509 1512 1515 1519 1522 1524 1527 1529 1532 1534 1536 1537 1539 1540 1541 1542 1543 1544 1544 1544 1544 1544 1544 1543
1487 1491 1489 1485 1481 1482 1485 1484 1476 1476 1477 1476 1477 1477 1478 1479 1480 1482 1484 1486 1489 1492 1495 1498 1501 1504 1508 1512 1515 1518 1521 1524 1526 1529 1531 1533 1535 1537 1538 1539 1540 1541 1542 1542 1543 1543 1543 1543 1542
1487 1488 1486 1485 1479 1481 1483 1480 1474 1472 1473 1473 1472 1472 1473 1473 1475 1477 1479 1481 1484 1487 1490 1493 1497 1500 1504 1508 1511 1514 1517 1520 1523 1525 1528 1530 1532 1534 1535 1537 1538 1539 1540 1540 1541 1541 1541 1541 1540
1478 1482 1482 1480 1477 1479 1480 1477 1472 1469 1470 1469 1468 1467 1467 1468 1470 1472 1474 1476 1478 1481 1484 1487 1491 1494 1498 1502 1505 1508 1511 1514 1518 1521 1524 1526 1529 1531 1532 1534 1535 1536 1537 1538 1539 1539 1539 1539 1539
1475 1479 1480 1478 1475 1477 1478 1475 1469 1465 1464 1463 1463 1462 1462 1463 1464 1466 1468 1470 1472 1474 1477 1481 1484 1488 1492 1495 1499 1503 1507 1510 1514 1517 1520 1522 1525 1527 1529 1530 1532 1533 1534 1535 1536 1536 1536 1537 1536
1472 1475 1476 1478 1476 1476 1478 1474 1467 1460 1458 1458 1457 1457 1457 1458 1459 1461 1463 1465 1467 1469 1472 1475 1478 1482 1486 1490 1495 1499 1503 1506 1509 1512 1514 1517 1520 1523 1525 1527 1528 1530 1531 1532 1533 1533 1534 1534 1534
1468 1467 1471 1475 1480 1483 1480 1484 1466 1460 1456 1453 1451 1451 1451 1452 1454 1456 1458 1460 1461 1464 1467 1470 1473 1477 1481 1485 1488 1492 1495 1498 1501 1505 1509 1512 1515 1518 1520 1523 1524 1526 1527 1528 1529 1530 1530 1531 1531
1462 1463 1469 1473 1478 1483 1481 1484 1467 1458 1455 1448 1445 1444 1445 1447 1449 1451 1453 1455 1457 1460 1462 1465 1468 1471 1475 1479 1483 1486 1490 1493 1498 1501 1505 1508 1511 1513 1516 1518 1520 1522 1523 1525 1526 1526 1527 1527 1528
1458 1465 1471 1476 1481 1484 1477 1482 1467 1457 1447 1442 1439 1439 1440 1442 1444 1446 1448 1450 1453 1455 1458 1460 1463 1466 1470 1474 1477 1481 1485 1488 1492 1496 1499 1502 1505 1508 1511 1513 1515 1517 1519 1521 1522 1522 1523 1524 1524
1456 1466 1477 1480 1483 1478 1471 1473 1457 1442 1437 1435 1434 1434 1436 1438 1440 1441 1443 1446 1448 1451 1453 1456 1459 1462 1465 1469 1472 1476 1480 1483 1486 1490 1494 1497 1500 1502 1505 1508 1510 1512 1514 1516 1517 1518 1519 1519 1520
1450 1455 1466 1473 1475 1474 1470 1466 1446 1433 1430 1429 1430 1431 1432 1434 1436 1437 1440 1442 1445 1447 1450 1452 1455 1458 1461 1464 1468 1471 1475 1478 1482 1485 1488 1491 1494 1497 1501 1503 1505 1508 1510 1511 1512 1513 1514 1515 1515
1446 1450 1452 1463 1468 1470 1466 1456 1442 1429 1427 1426 1426 1427 1428 1429 1432 1434 1436 1439 1441 1444 1446 1449 1451 1454 1457 1460 1464 1467 1470 1473 1476 1480 1483 1486 1490 1493 1495 1498 1500 1503 1505 1506 1507 1508 1509 1510 1510
1435 1442 1453 1459 1465 1465 1458 1454 1442 1427 1424 1422 1423 1423 1423 1426 1428 1430 1433 1436 1438 1441 1444 1446 1449 1451 1454 1457 1460 1462 1466 1469 1472 1475 1478 1481 1485 1488 1490 1493 1495 1497 1499 1501 1502 1503 1504 1505 1505
1435 1440 1442 1451 1454 1458 1457 1444 1423 1418 1415 1416 1416 1417 1419 1422 1425 1427 1430 1433 1436 1438 1441 1443 1445 1448 1451 1453 1456 1458 1461 1464 1467 1470 1473 1477 1480 1483 1485 1488 1490 1492 1494 1496 1497 1498 1499 1499 1499
1423 1428 1435 1444 1450 1452 1451 1435 1411 1411 1410 1412 1413 1415 1417 1420 1422 1425 1427 1430 1433 1435 1438 1440 1442 1445 1447 1450 1452 1454 1457 1460 1463 1466 1469 1472 1475 1478 1480 1483 1485 1487 1489 1490 1491 1492 1493 1493 1494